| time (UTC) | temp F | wind direction | speed knots | gust knots | rain 1hr in | rain 24hr in | rain mn in | humidity % | barometer mb |
| 20260906131517 | 58 | 0.0 | 0.0 | 0.00 | 0.00 | 0.00 | 71 | 1014.2 | |
| 20260906130017 | 58 | 0.0 | 0.0 | 0.00 | 0.00 | 0.00 | 71 | 1014.3 | |
| 20260906124517 | 58 | 0.0 | 0.0 | 0.00 | 0.00 | 0.00 | 70 | 1014.2 | |
| 20260906123037 | 58 | 0.0 | 0.0 | 0.00 | 0.00 | 0.00 | 70 | 1014.3 | |
| 20260906121517 | 58 | 0.0 | 0.0 | 0.00 | 0.00 | 0.00 | 70 | 1014.5 | |
| 20260906120017 | 58 | 0.0 | 0.0 | 0.00 | 0.00 | 0.00 | 70 | 1014.5 | |
| 20260906114517 | 58 | 0.0 | 0.0 | 0.00 | 0.00 | 0.00 | 69 | 1014.6 | |
| 20260906113017 | 58 | 0.0 | 0.0 | 0.00 | 0.00 | 0.00 | 70 | 1014.6 | |
| 20260906111516 | 58 | 0.0 | 0.0 | 0.00 | 0.00 | 0.00 | 70 | 1014.5 | |
| 20260906110016 | 58 | 0.0 | 0.0 | 0.00 | 0.00 | 0.00 | 70 | 1014.4 | |
| 20260906104516 | 58 | 0.0 | 0.9 | 0.00 | 0.00 | 0.00 | 70 | 1014.4 | |
| 20260906103017 | 58 | 0.0 | 0.9 | 0.00 | 0.00 | 0.00 | 70 | 1014.3 | |
| 20260906101517 | 58 | 0.0 | 0.9 | 0.00 | 0.00 | 0.00 | 70 | 1014.3 | |
| 20260906100016 | 58 | 0.0 | 0.0 | 0.00 | 0.00 | 0.00 | 70 | 1014.4 | |
| 20260906094517 | 58 | 0.0 | 0.0 | 0.00 | 0.00 | 0.00 | 70 | 1014.5 | |
| 20260906093016 | 58 | 0.0 | 0.0 | 0.00 | 0.00 | 0.00 | 70 | 1014.4 | |
| 20260906091517 | 58 | 0.0 | 0.0 | 0.00 | 0.00 | 0.00 | 70 | 1014.4 | |
| 20260906090016 | 58 | 0.0 | 0.0 | 0.00 | 0.00 | 0.00 | 70 | 1014.6 | |
| 20260906084557 | 58 | 0.0 | 0.0 | 0.00 | 0.00 | 0.00 | 70 | 1014.7 | |
| 20260906083017 | 58 | 0.0 | 0.0 | 0.00 | 0.00 | 0.00 | 70 | 1014.9 | |
| 20260906081517 | 58 | 0.0 | 0.0 | 0.00 | 0.00 | 0.00 | 69 | 1014.9 | |
| 20260906080016 | 59 | 0.0 | 0.0 | 0.00 | 0.00 | 0.00 | 70 | 1015.0 | |
| 20260906074516 | 59 | 0.0 | 0.0 | 0.00 | 0.00 | 0.00 | 70 | 1015.2 | |
| 20260906073017 | 59 | 0.0 | 0.9 | 0.00 | 0.00 | 0.00 | 69 | 1015.3 | |
| 20260906071516 | 59 | 0.0 | 0.0 | 0.00 | 0.00 | 0.00 | 69 | 1015.4 | |
| 20260906070017 | 60 | 0.0 | 0.0 | 0.00 | 0.00 | 0.00 | 67 | 1015.5 | |
| 20260906064535 | 60 | 0.0 | 0.0 | 0.00 | 0.00 | 0.00 | 68 | 1015.6 | |
| 20260906063035 | 60 | 0.0 | 0.0 | 0.00 | 0.00 | 0.00 | 67 | 1015.6 | |
| 20260906061516 | 61 | 0.0 | 0.0 | 0.00 | 0.00 | 0.00 | 67 | 1015.6 | |
| 20260906060015 | 61 | 0.0 | 0.0 | 0.00 | 0.00 | 0.00 | 66 | 1015.6 | |
| 20260906054516 | 61 | 0.0 | 0.0 | 0.00 | 0.00 | 0.00 | 65 | 1015.6 | |
| 20260906053016 | 62 | 0.0 | 0.0 | 0.00 | 0.00 | 0.00 | 64 | 1015.6 | |
| 20260906051515 | 62 | 0.0 | 0.9 | 0.00 | 0.00 | 0.00 | 63 | 1015.7 | |
| 20260906050016 | 63 | 0.0 | 0.9 | 0.00 | 0.00 | 0.00 | 60 | 1015.5 | |
| 20260906044516 | 64 | 0.0 | 0.9 | 0.00 | 0.00 | 0.00 | 59 | 1015.5 | |
| 20260906043015 | 64 | 0.0 | 0.0 | 0.00 | 0.00 | 0.00 | 58 | 1015.3 | |
| 20260906041516 | 65 | 0.0 | 0.0 | 0.00 | 0.00 | 0.00 | 55 | 1015.3 | |
| 20260906040055 | 66 | 0.0 | 0.0 | 0.00 | 0.00 | 0.00 | 53 | 1015.3 | |
| 20260906034535 | 66 | 0.0 | 0.0 | 0.00 | 0.00 | 0.00 | 51 | 1015.2 | |
| 20260906033035 | 66 | 0.0 | 0.0 | 0.00 | 0.00 | 0.00 | 51 | 1014.6 | |
| 20260906031515 | 67 | 0.0 | 0.0 | 0.00 | 0.00 | 0.00 | 50 | 1014.7 | |
| 20260906030036 | 67 | 0.0 | 0.0 | 0.00 | 0.00 | 0.00 | 49 | 1014.4 | |
| 20260906024515 | 67 | 0.0 | 0.0 | 0.00 | 0.00 | 0.00 | 49 | 1014.4 | |
| 20260906023015 | 68 | 0.0 | 0.0 | 0.00 | 0.00 | 0.00 | 48 | 1014.3 | |
| 20260906021535 | 69 | 0.0 | 0.0 | 0.00 | 0.00 | 0.00 | 48 | 1014.4 | |
| 20260906020016 | 69 | 0.0 | 0.0 | 0.00 | 0.00 | 0.00 | 48 | 1014.4 | |
| 20260906014516 | 69 | 0.0 | 1.7 | 0.00 | 0.00 | 0.00 | 47 | 1014.5 | |
| 20260906013016 | 70 | 0.0 | 0.9 | 0.00 | 0.00 | 0.00 | 46 | 1014.4 | |
| 20260906011515 | 70 | 0.0 | 0.0 | 0.00 | 0.00 | 0.00 | 44 | 1014.6 | |
| 20260906010015 | 71 | 113 | 0.9 | 3.5 | 0.00 | 0.00 | 0.00 | 45 | 1014.6 |
| 20260906004535 | 71 | 113 | 0.9 | 4.3 | 0.00 | 0.00 | 0.00 | 44 | 1014.9 |
| 20260906003015 | 71 | 0.0 | 2.6 | 0.00 | 0.00 | 0.00 | 44 | 1014.9 | |
| 20260906001515 | 71 | 113 | 0.9 | 4.3 | 0.00 | 0.00 | 0.00 | 43 | 1015.0 |
| 20260906000015 | 72 | 135 | 0.9 | 5.2 | 0.00 | 0.00 | 0.00 | 43 | 1015.1 |
| 20260905234535 | 72 | 0.0 | 1.7 | 0.00 | 0.00 | 0.00 | 43 | 1015.0 | |
| 20260905233015 | 73 | 113 | 0.9 | 4.3 | 0.00 | 0.00 | 0.00 | 43 | 1015.1 |
| 20260905231537 | 72 | 113 | 1.7 | 4.3 | 0.00 | 0.00 | 0.00 | 42 | 1015.2 |
| 20260905230017 | 73 | 113 | 0.9 | 4.3 | 0.00 | 0.00 | 0.00 | 41 | 1015.4 |
| 20260905224516 | 73 | 113 | 0.9 | 4.3 | 0.00 | 0.00 | 0.00 | 41 | 1015.5 |
| 20260905223057 | 72 | 113 | 0.9 | 4.3 | 0.00 | 0.00 | 0.00 | 40 | 1015.4 |
| 20260905221517 | 72 | 113 | 0.9 | 3.5 | 0.00 | 0.00 | 0.00 | 39 | 1015.5 |
| 20260905220017 | 71 | 113 | 0.9 | 3.5 | 0.00 | 0.00 | 0.00 | 41 | 1015.7 |
| 20260905214517 | 71 | 0.0 | 2.6 | 0.00 | 0.00 | 0.00 | 42 | 1015.8 | |
| 20260905213017 | 71 | 113 | 0.9 | 4.3 | 0.00 | 0.00 | 0.00 | 44 | 1015.8 |
| 20260905211517 | 70 | 113 | 0.9 | 5.2 | 0.00 | 0.00 | 0.00 | 45 | 1015.7 |
| 20260905210017 | 69 | 0.0 | 2.6 | 0.00 | 0.00 | 0.00 | 46 | 1015.7 | |
| 20260905204517 | 69 | 135 | 0.9 | 4.3 | 0.00 | 0.00 | 0.00 | 51 | 1015.8 |
| 20260905203017 | 69 | 0.0 | 1.7 | 0.00 | 0.00 | 0.00 | 53 | 1015.7 | |
| 20260905201517 | 70 | 0.0 | 1.7 | 0.00 | 0.00 | 0.00 | 54 | 1015.9 | |
| 20260905200017 | 70 | 0.0 | 1.7 | 0.00 | 0.00 | 0.00 | 53 | 1015.8 | |
| 20260905194517 | 70 | 0.0 | 1.7 | 0.00 | 0.00 | 0.00 | 53 | 1015.8 | |
| 20260905193017 | 71 | 0.0 | 1.7 | 0.00 | 0.00 | 0.00 | 51 | 1015.8 | |
| 20260905191517 | 72 | 135 | 0.9 | 7.8 | 0.00 | 0.00 | 0.00 | 43 | 1015.7 |
| 20260905190017 | 72 | 135 | 0.9 | 5.2 | 0.00 | 0.00 | 0.00 | 43 | 1015.9 |
| 20260905184517 | 73 | 135 | 0.9 | 5.2 | 0.00 | 0.00 | 0.00 | 44 | 1016.0 |
| 20260905183037 | 72 | 180 | 0.9 | 5.2 | 0.00 | 0.00 | 0.00 | 45 | 1015.8 |
| 20260905181517 | 71 | 113 | 0.9 | 3.5 | 0.00 | 0.00 | 0.00 | 48 | 1015.9 |
| 20260905180017 | 72 | 113 | 0.9 | 5.2 | 0.00 | 0.00 | 0.00 | 47 | 1016.0 |
| 20260905174517 | 72 | 113 | 1.7 | 4.3 | 0.00 | 0.00 | 0.00 | 49 | 1016.0 |
| 20260905173017 | 72 | 113 | 0.9 | 4.3 | 0.00 | 0.00 | 0.00 | 49 | 1016.0 |
| 20260905171517 | 71 | 113 | 0.9 | 4.3 | 0.00 | 0.00 | 0.00 | 51 | 1015.9 |
| 20260905170017 | 71 | 113 | 0.9 | 2.6 | 0.00 | 0.01 | 0.00 | 52 | 1015.7 |
| 20260905164557 | 68 | 113 | 0.9 | 2.6 | 0.00 | 0.01 | 0.00 | 53 | 1015.6 |
| 20260905163017 | 67 | 90 | 0.9 | 2.6 | 0.00 | 0.01 | 0.00 | 57 | 1015.6 |
| 20260905161517 | 66 | 90 | 0.9 | 3.5 | 0.00 | 0.01 | 0.00 | 59 | 1015.6 |
| 20260905160017 | 65 | 0.0 | 3.5 | 0.00 | 0.01 | 0.00 | 63 | 1015.6 | |
| 20260905154517 | 64 | 68 | 0.9 | 3.5 | 0.00 | 0.01 | 0.00 | 61 | 1015.4 |
| 20260905153017 | 64 | 0.0 | 1.7 | 0.00 | 0.01 | 0.00 | 62 | 1015.7 | |
| 20260905151517 | 63 | 0.0 | 1.7 | 0.00 | 0.02 | 0.00 | 65 | 1015.6 | |
| 20260905150017 | 61 | 0.0 | 1.7 | 0.00 | 0.02 | 0.00 | 66 | 1015.5 | |
| 20260905144517 | 60 | 0.0 | 1.7 | 0.00 | 0.02 | 0.00 | 67 | 1015.2 | |
| 20260905143017 | 58 | 0.0 | 0.0 | 0.00 | 0.03 | 0.00 | 69 | 1015.2 | |
| 20260905141516 | 56 | 0.0 | 0.0 | 0.00 | 0.03 | 0.00 | 71 | 1015.1 | |
| 20260905140016 | 55 | 0.0 | 0.0 | 0.00 | 0.04 | 0.00 | 71 | 1014.8 | |
| 20260905134536 | 55 | 0.0 | 0.0 | 0.00 | 0.04 | 0.00 | 71 | 1014.8 | |
| 20260905133017 | 55 | 0.0 | 0.0 | 0.00 | 0.04 | 0.00 | 71 | 1014.7 |